Location: Godiavel Galaoual
(15.2485°N, 12.6604°W)
Time: 06:56:43
(UTC+00:00)

METEOR M2 - Pass Details

Date: 31 July 2021
Orbit: 818 x 827 km, 98.5° (Epoch: 27 September)

Event Time Altitude Azimuth Distance (km) Brightness Sun altitude
Rises 20:57:53 0° 201° (SSW) 3,354 ? -22.3°
Reaches altitude 10° 21:01:00 10° 221° (SW) 2,422 ? -23.0°
Maximum altitude 21:04:28 18° 261° (W) 1,948 ? -23.7°
Drops below altitude 10° 21:07:57 10° 302° (WNW) 2,424 ? -24.5°
Sets 21:11:06 0° 321° (NW) 3,357 ? -25.2°
